CW9533 Torre Faro Messina IT current weather conditions

sailwx.info

Wind from 265

Air temperature 20.0° C
Dewpoint 12.7° C

Last reported at 2017-Sep-22 06:04 UTC.
Time now 2017-Sep-22 06:40 UTC

Location: N 38°16' E 015°39'.
View on Google Maps.

See reports from other nearby stations

  
Tides and Currents Weather Stations Pressure Air Temp Water Temp Dewpoint Dewpoint Depression Visibility Wind Speed Wind Dir Waves Ship Positions
date/time (UTC)wind fromknots sea level pressurealtimeterstation pressurevisibilityair tempwater tempwave heightnotes
2017-Sep-22 06:04 265 20.0
2017-Sep-22 05:49 265 19.4
2017-Sep-22 05:34 265
2017-Sep-22 05:19 266 18.3
2017-Sep-22 05:03 265 18.3
2017-Sep-22 04:49 267 18.3
2017-Sep-22 04:33 267 18.3
2017-Sep-22 04:19 267
2017-Sep-22 04:03 267 18.3
2017-Sep-22 03:48 265 18.3
2017-Sep-22 03:33 267 18.3
2017-Sep-22 03:18 267 18.3
2017-Sep-22 03:04 267 18.3
2017-Sep-22 02:48 267 18.3
2017-Sep-22 02:33 267
2017-Sep-22 02:18 268 18.9
2017-Sep-22 02:03 267 18.9
2017-Sep-22 01:48 268 18.9
2017-Sep-22 01:33 268 18.9
2017-Sep-22 01:18 268
2017-Sep-22 01:03 267 18.9
2017-Sep-22 00:48 264 19.4
2017-Sep-22 00:33 257 0 gusting 5 19.4
2017-Sep-22 00:18 068 20.0
2017-Sep-22 00:03 068
2017-Sep-21 23:48 067 20.0
2017-Sep-21 23:33 067 20.0
2017-Sep-21 23:18 057 20.6
2017-Sep-21 23:03 057 20.6
2017-Sep-21 22:48 057
2017-Sep-21 22:33 030 21.1
2017-Sep-21 22:18 030 21.1
2017-Sep-21 22:03 032 21.1
2017-Sep-21 21:48 021 21.1
2017-Sep-21 21:33 355
2017-Sep-21 21:18 052 21.1
2017-Sep-21 21:03 056 21.1
2017-Sep-21 20:48 057 21.7
2017-Sep-21 20:33 009 21.1
2017-Sep-21 20:18 005
2017-Sep-21 20:04 005 21.1
2017-Sep-21 19:48 345 2 gusting 6 21.1
2017-Sep-21 19:33 345 1 gusting 6
2017-Sep-21 19:18 342 21.1
2017-Sep-21 19:02 360 1 gusting 6
2017-Sep-21 18:48 350 0 gusting 6 21.1
2017-Sep-21 18:33 350 21.1
2017-Sep-21 18:18 005 21.1
2017-Sep-21 18:03 360 21.7
2017-Sep-21 17:47 360 21.7
2017-Sep-21 17:32 024 21.7
2017-Sep-21 17:17 348
2017-Sep-21 17:02 315 0 gusting 6 21.7
2017-Sep-21 16:47 344 1 gusting 6 21.7
2017-Sep-21 16:33 309 3 gusting 8 21.7
2017-Sep-21 16:18 343 0 gusting 5 22.2
2017-Sep-21 16:02 012 1 gusting 6
2017-Sep-21 15:47 017 22.2
2017-Sep-21 15:32 005 22.8
2017-Sep-21 15:19 339 0 gusting 4 22.8
2017-Sep-21 15:02 360 22.8
2017-Sep-21 14:47 355
2017-Sep-21 14:32 360 2 gusting 8 23.3
2017-Sep-21 14:17 360 3 gusting 7
2017-Sep-21 14:02 005 2 gusting 6 23.9
2017-Sep-21 13:47 029 23.9
2017-Sep-21 13:32 040 0 gusting 7 23.3
2017-Sep-21 13:17 355 3 gusting 7 23.9
2017-Sep-21 13:02 315 1 gusting 6
2017-Sep-21 12:47 021 2 gusting 8 23.3
2017-Sep-21 12:32 360 23.9
2017-Sep-21 12:17 005 0 gusting 6 24.4
2017-Sep-21 12:02 350 1 gusting 7 24.4
2017-Sep-21 11:47 309 2 gusting 7 24.4
2017-Sep-21 11:32 019 0 gusting 8 24.4
2017-Sep-21 11:17 030 0 gusting 7
2017-Sep-21 11:02 005 0 gusting 9 23.9
2017-Sep-21 10:47 347 1 gusting 7 23.3
2017-Sep-21 10:32 327 1 gusting 7 23.9
2017-Sep-21 10:17 020 2 gusting 8 23.9
2017-Sep-21 10:02 341 1 gusting 6
2017-Sep-21 09:47 012 4 gusting 7 23.9
2017-Sep-21 09:32 040 4 gusting 9 23.9
2017-Sep-21 09:17 292 2 gusting 8 23.9
2017-Sep-21 09:02 331 23.9
2017-Sep-21 08:47 326 0 gusting 6
2017-Sep-21 08:32 330 3 gusting 6 22.8
2017-Sep-21 08:17 333 22.8
2017-Sep-21 08:02 342 2 gusting 7 22.8
2017-Sep-21 07:47 348 22.8
2017-Sep-21 07:31 360 22.8
2017-Sep-21 07:16 355 1 gusting 7 22.2
2017-Sep-21 07:01 325 0 gusting 7 22.2
2017-Sep-21 06:46 012 21.7
2017-Sep-21 06:31 027 0 gusting 6 21.7
2017-Sep-21 06:16 015 2 gusting 9 21.7
2017-Sep-21 06:01 018 1 gusting 8 21.1
2017-Sep-21 05:46 348 3 gusting 8
2017-Sep-21 05:31 360 2 gusting 9 21.1
2017-Sep-21 05:16 360 4 gusting 8 21.1
2017-Sep-21 05:01 348 5 gusting 12 21.1
2017-Sep-21 04:46 330 4 gusting 10 21.1
2017-Sep-21 04:31 328 6 gusting 12
2017-Sep-21 04:16 013 2 gusting 11 20.6
2017-Sep-21 04:01 302 6 gusting 13 20.6
2017-Sep-21 03:46 360 6 gusting 13 20.6
2017-Sep-21 03:31 331 6 gusting 13 21.1
2017-Sep-21 03:18 309 5 gusting 12
2017-Sep-21 03:01 271 20.6
2017-Sep-21 02:46 284 20.6
2017-Sep-21 02:31 323 0 gusting 7 20.6
2017-Sep-21 02:16 288 2 gusting 6 20.6
2017-Sep-21 02:01 296 5 gusting 11
2017-Sep-21 01:46 269 0 gusting 7 20.6
2017-Sep-21 01:31 271 0 gusting 7 20.6
2017-Sep-21 01:16 285 20.6
2017-Sep-21 01:01 328 20.6
2017-Sep-21 00:46 355 20.0
2017-Sep-21 00:31 268 2 gusting 10 20.6
2017-Sep-21 00:16 302 5 gusting 11
2017-Sep-21 00:01 326 6 gusting 12 21.1
2017-Sep-20 23:46 338 6 gusting 13 21.1
2017-Sep-20 23:31 329 8 gusting 14 21.1
2017-Sep-20 23:15 005 6 gusting 14 21.1
2017-Sep-20 23:00 334 6 gusting 17 21.1
2017-Sep-20 22:45 314 8 gusting 17 21.1
2017-Sep-20 22:30 303 7 gusting 14 21.1
2017-Sep-20 22:15 318 5 gusting 11 21.1
2017-Sep-20 22:00 309 20.6
2017-Sep-20 21:45 293 1 gusting 11 20.6
2017-Sep-20 21:30 337 8 gusting 15
2017-Sep-20 21:15 337 5 gusting 13 20.6
2017-Sep-20 21:00 339 7 gusting 16 20.6
2017-Sep-20 20:45 287 2 gusting 13
2017-Sep-20 20:30 305 8 gusting 14 21.7
2017-Sep-20 20:15 319 6 gusting 13 21.7
2017-Sep-20 20:00 330 5 gusting 14
2017-Sep-20 19:45 335 8 gusting 15 21.7
2017-Sep-20 19:30 325 8 gusting 14 21.7
2017-Sep-20 19:14 326 9 gusting 16 21.7
2017-Sep-20 18:59 319 6 gusting 13 21.7
2017-Sep-20 18:44 323 3 gusting 10 21.7
2017-Sep-20 18:29 295 2 gusting 13 21.7
2017-Sep-20 18:14 319 5 gusting 13 21.1
2017-Sep-20 17:59 319 6 gusting 16 21.7
2017-Sep-20 17:44 338 8 gusting 15 22.2
2017-Sep-20 17:29 277 3 gusting 13 22.2
2017-Sep-20 17:14 275 6 gusting 18
2017-Sep-20 16:59 327 9 gusting 18 22.2
2017-Sep-20 16:44 286 6 gusting 15 22.2
2017-Sep-20 16:29 298 6 gusting 13 22.2
2017-Sep-20 16:13 005 6 gusting 13 22.2
2017-Sep-20 15:59 296 8 gusting 13 21.7
2017-Sep-20 15:43 331 7 gusting 14
2017-Sep-20 15:28 328 11 gusting 19 21.1
2017-Sep-20 15:13 346 5 gusting 11 21.7
2017-Sep-20 14:58 336 4 gusting 13 21.7
2017-Sep-20 14:43 344 6 gusting 11 22.2
2017-Sep-20 14:28 005 6 gusting 14 22.2
2017-Sep-20 14:13 344 7 gusting 14 22.2
2017-Sep-20 13:58 034 6 gusting 14 21.7
2017-Sep-20 13:43 317 8 gusting 14
2017-Sep-20 13:28 317 6 gusting 15 22.2
2017-Sep-20 13:12 016 6 gusting 13 22.2
2017-Sep-20 12:58 347 6 gusting 13
2017-Sep-20 12:42 335 7 gusting 13 22.8
2017-Sep-20 12:27 355 8 gusting 16 22.8
2017-Sep-20 12:12 350 8 gusting 17
2017-Sep-20 11:57 010 8 gusting 18 22.2
2017-Sep-20 11:42 323 9 gusting 18 22.8
2017-Sep-20 11:27 334 9 gusting 19
2017-Sep-20 11:12 342 8 gusting 16 21.1
2017-Sep-20 10:57 285 4 gusting 17 21.7
2017-Sep-20 10:42 360 8 gusting 19 22.8
2017-Sep-20 10:27 350 5 gusting 17 22.8
2017-Sep-20 10:12 325 9 gusting 15 22.8
2017-Sep-20 09:57 295 9 gusting 19 22.2
2017-Sep-20 09:42 336 8 gusting 16 22.2
2017-Sep-20 09:27 315 8 gusting 16
2017-Sep-20 09:11 340 7 gusting 18 23.3
2017-Sep-20 08:57 299 7 gusting 19 23.3
2017-Sep-20 08:41 296 8 gusting 19
2017-Sep-20 08:26 304 7 gusting 19 22.8
2017-Sep-20 08:11 310 6 gusting 18 22.8
2017-Sep-20 07:56 303 5 gusting 17
2017-Sep-20 07:41 290 4 gusting 17 22.8
2017-Sep-20 07:26 360 8 gusting 14 22.8
2017-Sep-20 07:11 317 7 gusting 16
2017-Sep-20 06:56 305 4 gusting 12 23.3
2017-Sep-20 06:41 281 8 gusting 18 22.8
2017-Sep-20 06:26 340 7 gusting 19 22.8
2017-Sep-20 06:10 292 6 gusting 18 22.2